Weather History for LEIB - December, 2012

Change the Weather History Date:

Sunday, December 9, 2012

  Actual Average Record
Temperature  
Mean Temperature 50 °F -  
Max Temperature 61 °F 58 °F 75 °F (2010)
Min Temperature 40 °F 47 °F 40 °F (2012)
Degree Days  
Heating Degree Days 14    
Moisture  
Dew Point 42 °F    
Average Humidity 77    
Maximum Humidity 100    
Minimum Humidity 48    
Precipitation  
Precipitation 0.00 in 0.06 in - ()
Sea Level Pressure  
Sea Level Pressure 30.26 in    
Wind  
Wind Speed 1 mph ()    
Max Wind Speed 8 mph    
Max Gust Speed -    
Visibility 8.2 miles    
Events      
Averages and records for this station are not official NWS values.
T = Trace of Precipitation, MM = Missing Value Source: Averaged Metar Reports

Daily Weather History Graph

Daily Weather History Graph

Search for Another Location

Airport or City:

Trip Planner

Search our weather history database for the weather conditions in past years. The results will help you decide how hot, cold, wet, or windy it might be!

Date:

Astronomy

Dec. 09, 2012 Rise Set
Actual Time 8:01 AM CET 5:32 PM CET
Civil Twilight 7:31 AM CET 6:02 PM CET
Nautical Twilight 6:58 AM CET 6:35 PM CET
Astronomical Twilight 6:26 AM CET 7:07 PM CET
Moon 3:18 AM CET (12/9) 2:27 PM CET (12/9)
Length of Visible Light 10h 30m
Length of Day
9h 30m
Waning Crescent, 21% of the Moon is Illuminated
Dec 9
Waning Crescent
Dec 13
New
Dec 20
First Quarter
Dec 28
Full
Jan 5
Last Quarter

Hourly Weather History & Observations

Time (CET) Temp. Dew Point Humidity Pressure Visibility Wind Dir Wind Speed Gust Speed Precip Events Conditions
12:00 AM 46.4 °F 41.0 °F 81% 30.21 in - Calm Calm - N/A   Clear
1:00 AM 42 °F 38 °F 81% 30.24 in 6 mi Calm Calm - -  
1:00 AM 42.8 °F 39.2 °F 87% 30.21 in - Calm Calm - N/A   Clear
4:00 AM 44.6 °F 41.0 °F 87% 30.24 in - Variable 2.3 mph - N/A   Clear
5:30 AM 42.8 °F 41.0 °F 93% 30.24 in - Variable 1.2 mph - N/A   Clear
6:00 AM 44.6 °F 39.2 °F 81% 30.24 in - Calm Calm - N/A   Clear
6:30 AM 42.8 °F 39.2 °F 87% 30.24 in - Calm Calm - N/A   Clear
7:00 AM 40 °F 37 °F 83% 30.27 in 9 mi Calm Calm - -   Scattered Clouds
7:00 AM 41.0 °F 37.4 °F 87% 30.27 in 6.2 mi Calm Calm - N/A   Partly Cloudy
7:30 AM 41.0 °F 39.2 °F 93% 30.27 in 6.2 mi Variable 2.3 mph - N/A   Partly Cloudy
8:00 AM 41.0 °F 39.2 °F 93% 30.27 in 6.2 mi Variable 1.2 mph - N/A   Partly Cloudy
8:30 AM 41.0 °F 41.0 °F 100% 30.27 in - Variable 1.2 mph - N/A   Clear
9:00 AM 44.6 °F 42.8 °F 93% 30.27 in - Calm Calm - N/A   Clear
9:30 AM 50.0 °F 46.4 °F 87% 30.30 in - Calm Calm - N/A   Clear
10:00 AM 53.6 °F 48.2 °F 82% 30.30 in - Calm Calm - N/A   Clear
10:30 AM 55.4 °F 48.2 °F 77% 30.30 in - Variable 1.2 mph - N/A   Clear
11:00 AM 57.2 °F 46.4 °F 67% 30.30 in - NE 4.6 mph - N/A   Clear
11:30 AM 57.2 °F 44.6 °F 63% 30.30 in - NE 4.6 mph - N/A   Clear
12:00 PM 59.0 °F 44.6 °F 59% 30.30 in - Variable 2.3 mph - N/A   Clear
12:30 PM 59.0 °F 42.8 °F 55% 30.30 in - Variable 1.2 mph - N/A   Clear
1:00 PM 59 °F 45 °F 48% 30.30 in 12 mi SSW 8.1 mph - -   Scattered Clouds
1:00 PM 59.0 °F 42.8 °F 55% 30.30 in - SSW 8.1 mph - N/A   Clear
1:30 PM 59.0 °F 44.6 °F 59% 30.27 in - SSW 6.9 mph - N/A   Clear
2:00 PM 59.0 °F 44.6 °F 59% 30.27 in - South 5.8 mph - N/A   Clear
2:30 PM 59.0 °F 46.4 °F 63% 30.27 in - South 5.8 mph - N/A   Clear
3:00 PM 59.0 °F 42.8 °F 55% 30.27 in - South 3.5 mph - N/A   Clear
3:30 PM 59.0 °F 41.0 °F 51% 30.24 in - South 3.5 mph - N/A   Clear
4:00 PM 59.0 °F 42.8 °F 55% 30.27 in - South 3.5 mph - N/A   Clear
4:30 PM 57.2 °F 42.8 °F 59% 30.24 in - Variable 2.3 mph - N/A   Clear
5:00 PM 57.2 °F 42.8 °F 59% 30.24 in - Variable 2.3 mph - N/A   Clear
5:30 PM 53.6 °F 41.0 °F 62% 30.27 in - Variable 2.3 mph - N/A   Clear
6:00 PM 51.8 °F 42.8 °F 71% 30.27 in - Calm Calm - N/A   Clear
6:30 PM 50.0 °F 42.8 °F 76% 30.27 in - Variable 1.2 mph - N/A   Clear
7:00 PM 47 °F 42 °F 75% 30.27 in 12 mi Calm Calm - -  
7:00 PM 48.2 °F 42.8 °F 82% 30.27 in - Calm Calm - N/A   Clear
7:30 PM 46.4 °F 42.8 °F 87% 30.27 in - Variable 1.2 mph - N/A   Clear
8:00 PM 46.4 °F 42.8 °F 87% 30.27 in - Variable 2.3 mph - N/A   Clear
8:30 PM 44.6 °F 42.8 °F 93% 30.27 in - Variable 2.3 mph - N/A   Clear
9:00 PM 44.6 °F 41.0 °F 87% 30.27 in - Calm Calm - N/A   Clear
9:30 PM 44.6 °F 42.8 °F 93% 30.24 in - Calm Calm - N/A   Clear
10:00 PM 46.4 °F 42.8 °F 87% 30.24 in - Variable 1.2 mph - N/A   Clear
10:30 PM 44.6 °F 42.8 °F 93% 30.24 in - Variable 1.2 mph - N/A   Clear
11:00 PM 44.6 °F 42.8 °F 93% 30.24 in - Variable 2.3 mph - N/A   Clear
11:30 PM 44.6 °F 42.8 °F 93% 30.21 in - Variable 1.2 mph - N/A   Clear